Left ArrowRight Arrow

Hourly Observations for July 10, 2020

Temp ( °F °C ) Dew Point ( °F °C ) Humidity (%) Winds ( mph kmh ) Pressure ( in mb ) Visibility ( mi km ) Precip ( " mm )
12:27 am 00:27 Mostly Cloudy 78 25.6 71 21.7 79 79 Calm 29.98 1015 10 16 0.00 0.00
12:51 am 00:51 Mostly Cloudy 78 25.6 71 21.7 79 79 SSE 6 9 29.98 1015 10 16 0.00 0.00
1:51 am 01:51 Clear 76 24.4 71 21.7 85 85 E 5 7 29.97 1015 10 16 0.00 0.00
2:51 am 02:51 Mostly Cloudy 76 24.4 71 21.7 85 85 Calm 29.96 1015 10 16 0.00 0.00
3:51 am 03:51 Mostly Cloudy 76 24.4 72 22.2 88 88 ENE 3 6 29.96 1014 10 16 0.00 0.00
3:58 am 03:58 Clear 75 23.9 72 22.2 90 90 Calm 29.96 1015 10 16 0.00 0.00
4:51 am 04:51 Cloudy 76 24.4 72 22.2 88 88 NE 6 9 29.96 1015 10 16 0.00 0.00
5:51 am 05:51 Mostly Cloudy 76 24.4 72 22.2 88 88 NNE 5 7 29.94 1014 10 16 0.00 0.00
6:51 am 06:51 Cloudy with Mist and Fog 76 24.4 73 22.8 91 91 ENE 6 9 29.95 1014 6 10 0.00 0.00
7:51 am 07:51 Mostly Cloudy 76 24.4 73 22.8 91 91 ENE 6 9 29.93 1014 7 11 0.00 0.00
8:51 am 08:51 Cloudy 76 24.4 72 22.2 88 88 ENE 9 15 29.93 1014 7 11 0.00 0.00
9:51 am 09:51 Mostly Cloudy 77 25 73 22.8 88 88 E 10 17 29.91 1013 10 16 0.00 0.00
10:51 am 10:51 Mostly Cloudy with Drizzle 77 25 72 22.2 85 85 ENE 12 19 29.89 1012 6 10 0.00 0.00
11:51 am 11:51 Cloudy with Rain 75 23.9 73 22.8 94 94 ENE 10 17 29.88 1012 3 5 0.05 1.27
12:01 pm 12:01 Cloudy with Rain 75 23.9 73 22.8 94 94 ENE 7 11 29.87 1011 5 8 0.02 0.51
12:51 pm 12:51 Cloudy with Rain 75 23.9 73 22.8 94 94 NE 13 20 29.86 1011 4 6 0.05 1.27
1:51 pm 13:51 Cloudy with Heavy Rain 75 23.9 72 22.2 90 90 ENE 14 22 29.82 1010 1 2 0.17 4.32
1:53 pm 13:53 Cloudy with Thunderstorms 74 23.3 72 22.2 94 94 ENE 14 22 29.82 1010 2 2 0.03 0.76
2:00 pm 14:00 Cloudy with Strong Thunderstorms 74 23.3 72 22.2 94 94 ENE 12 19 29.82 1010 1 2 0.13 3.30
2:23 pm 14:23 Mostly Cloudy with Strong Thunderstorms 74 23.3 72 22.2 94 94 NE 12 19 29.80 1009 1 1 0.33 8.38
2:37 pm 14:37 Mostly Cloudy with Rain 74 23.3 72 22.2 94 94 NE 13 20 29.78 1008 1 1 0.42 10.67
2:51 pm 14:51 Mostly Cloudy with Heavy Rain 74 23.3 72 22.2 94 94 ENE 14 22 29.78 1008 1 1 0.52 13.21
3:19 pm 15:19 Cloudy with Heavy Rain 74 23.3 72 22.2 94 94 ENE 15 24 29.76 1008 1 2 0.52 13.21
3:51 pm 15:51 Cloudy with Heavy Rain 74 23.3 72 22.2 94 94 E 13 20 29.73 1007 1 2 0.94 23.88
3:53 pm 15:53 Cloudy with Heavy Rain 74 23.3 72 22.2 94 94 ENE 14 22 29.73 1007 1 1 0.04 1.02
4:00 pm 16:00 Cloudy with Heavy Rain 74 23.3 72 22.2 94 94 ENE 14 22 29.73 1007 1 1 0.18 4.57
4:08 pm 16:08 Cloudy with Heavy Rain 74 23.3 72 22.2 94 94 ENE 14 22 29.72 1006 1 1 0.29 7.37
4:51 pm 16:51 Cloudy with Rain 74 23.3 72 22.2 94 94 ENE 12 19 29.70 1006 2 3 0.70 17.78
5:00 pm 17:00 Cloudy with Light Rain 74 23.3 72 22.2 94 94 E 18 30 29.70 1006 3 5 0.04 1.02
5:07 pm 17:07 Cloudy with Heavy Rain 74 23.3 72 22.2 94 94 E 12 19 29.70 1006 1 1 0.10 2.54
5:29 pm 17:29 Cloudy with Light Rain 74 23.3 72 22.2 94 94 ENE 13 20 29.69 1005 8 13 0.16 4.06
5:51 pm 17:51 Cloudy 77 25 73 22.8 88 88 E 14 22 29.67 1005 8 13 0.16 4.06
6:20 pm 18:20 Cloudy with Light Rain 76 24.4 72 22.2 88 88 E 13 20 29.66 1004 1 2 0.00 0.00
6:32 pm 18:32 Cloudy with Light Rain 75 23.9 72 22.2 90 90 E 13 20 29.65 1004 4 6 0.03 0.76
6:51 pm 18:51 Cloudy with Light Rain 75 23.9 72 22.2 90 90 ESE 15 24 29.64 1004 3 5 0.03 0.76
7:01 pm 19:01 Cloudy with Light Rain 75 23.9 72 22.2 90 90 E 17 28 29.64 1004 2 2 0.00 0.00
7:51 pm 19:51 Cloudy with Rain 74 23.3 72 22.2 94 94 ESE 14 22 29.62 1003 2 2 0.05 1.27
8:07 pm 20:07 Cloudy with Light Rain 74 23.3 72 22.2 94 94 ESE 12 19 29.62 1003 2 3 0.03 0.76
8:51 pm 20:51 Cloudy with Light Rain 73 22.8 71 21.7 94 94 E 16 26 29.60 1002 2 3 0.08 2.03
9:51 pm 21:51 Cloudy with Light Rain 73 22.8 72 22.2 96 96 SE 10 17 29.60 1002 2 3 0.07 1.78
9:58 pm 21:58 Cloudy with Light Rain 74 23.3 72 22.2 94 94 SE 13 20 29.60 1002 7 11 0.00 0.00
10:51 pm 22:51 Cloudy with Light Rain 74 23.3 73 22.8 97 97 SSE 10 17 29.60 1002 3 5 0.01 0.25
11:51 pm 23:51 Cloudy with Mist and Fog 75 23.9 73 22.8 94 94 S 13 20 29.60 1003 5 8 0.02 0.51

Powered by Vaisala Xweather